Location: Okie-Tex Star Party
(36.8978°N, 102.9520°W)
Time: 20:07:03
(UTC-06:00)

Daily predictions for brighter satellites

Satellite Brightness Start Highest point End
(mag) Time Altitude Azimuth Time Altitude Azimuth Time Altitude Azimuth
Ariane Rocket 3.0 18:17:55 10° SSE 18:22:56 73° ENE 18:28:00 10° N
CSL-04 Rocket 3.9 18:21:11 10° SSE 18:26:44 87° WSW 18:32:18 10° NNW
BREEZE M DEB (TANK) 3.8 18:23:01 10° WSW 18:26:50 80° NNW 18:41:23 10° NE
GPS 2-05 Rocket1 3.8 18:23:55 10° W 18:26:50 38° SSW 18:29:42 10° SE
COSMO-SKYMED 1 3.2 18:23:29 10° NNE 18:27:31 36° E 18:31:30 10° SSE
Tiangong 1 2.0 18:27:47 10° WNW 18:29:56 25° NNW 18:32:04 10° NE
IRS-1A Rocket 4.3 18:28:21 10° SSE 18:33:42 56° ENE 18:39:10 10° N
CZ-2C R/B 3.8 18:31:09 10° NNE 18:35:53 72° ESE 18:40:30 10° S
Cosmos 1943 Rocket 2.7 18:32:59 10° N 18:38:05 35° ENE 18:43:07 10° SE
ERS-2 3.6 18:36:49 10° ESE 18:39:16 17° ENE 18:41:42 10° NNE
SMAP 3.6 18:35:31 10° S 18:40:07 67° WSW 18:44:46 10° NNW
Cosmos 1503 Rocket 4.0 18:37:53 10° NNW 18:43:14 78° ENE 18:48:35 10° SSE
Cosmos 1842 Rocket 3.9 18:39:53 10° NNW 18:44:19 70° W 18:48:40 10° S
Cosmos 1908 3.4 18:41:40 10° N 18:45:33 75° W 18:49:22 10° S
Meteor 1-21 Rocket 4.3 18:40:48 10° S 18:46:38 76° E 18:52:34 10° NNE
NOAA 12 4.4 18:47:02 10° SE 18:51:57 44° ENE 18:56:54 10° N
Cosmos 1076 Rocket 3.7 18:47:45 10° S 18:51:58 52° E 18:56:14 10° NNE
Cosmos 2341 Rocket 4.0 18:48:37 10° N 18:54:54 85° E 19:01:12 10° S
Cosmos 1400 Rocket 2.7 18:50:56 10° S 18:54:55 74° E 18:59:00 10° NNE
KORONAS-FOTON 4.4 18:51:42 10° SSW 18:55:28 59° W 18:59:14 10° N
Cosmos 1992 Rocket 4.3 18:50:52 10° SSW 18:56:02 70° WNW 19:01:15 10° NNE
Cosmos 2084 3.1 18:52:49 10° NNW 18:56:38 88° WSW 19:00:33 10° SSE
H-2A R/B 4.0 18:54:08 10° ESE 18:56:57 20° ENE 18:59:49 10° NNE
MOS 1 4.3 18:52:18 10° SSE 18:57:49 61° ENE 19:03:23 10° N
FENGYUN 3A 3.7 18:53:32 10° SSE 18:58:45 57° ENE 19:04:00 10° N
Okean 3 Rocket 3.6 18:55:33 10° S 19:00:03 71° E 19:04:35 10° NNE
Cosmos 1766 Rocket 3.9 19:01:27 10° SSE 19:05:29 39° E 19:09:32 10° NNE
OAO 3 Rocket 3.4 19:02:22 10° WSW 19:07:01 63° S 19:10:16 19° E
MONITOR-E 4.0 19:08:35 10° SSE 19:11:38 90° ENE 19:14:41 10° N
SKYMED 2 4.1 19:11:19 10° N 19:15:36 60° WNW 19:19:52 10° SSW
Cosmos 1943 4.1 19:11:17 10° SW 19:16:42 47° WNW 19:22:08 10° N
Cosmos 1726 3.0 19:14:03 10° NNW 19:17:37 51° W 19:21:10 10° S
Cosmos 2181 Rocket 4.5 19:11:57 10° SSW 19:18:20 67° W 19:24:46 10° N
Cosmos 968 Rocket 3.3 19:14:09 10° NNW 19:19:19 72° ENE 19:24:24 10° SSE
CZ-4 R/B 3.7 19:18:58 10° SSW 19:22:35 28° W 19:26:17 10° NW
YAOGAN 1 3.9 19:18:51 10° S 19:22:58 43° W 19:27:05 10° NNW
ALOS 2.4 19:18:32 10° S 19:23:11 77° W 19:27:52 10° NNW
EO 1 Del DPAF 3.4 19:20:06 10° N 19:23:56 74° WNW 19:27:44 10° SSW
DMSP B5D1-3 4.5 19:22:02 10° NNE 19:27:10 88° W 19:32:15 10° SSW
ATLAS 2AS CENTAUR R/B 3.1 19:20:39 10° NW 19:28:30 75° WSW 19:35:38 10° SSE
Cosmos 1703 4.0 19:25:46 10° SSE 19:28:51 33° ESE 19:28:51 33° ESE
Thor Agena Rocket 3.6 19:42:47 30° NE 19:45:12 54° E 19:50:18 10° S
Cosmos 2218 Rocket 4.2 19:39:58 10° NNW 19:46:06 71° W 19:52:11 10° S
NOSS 3-4 (A) 4.0 19:44:03 10° NNW 19:50:54 49° NE 19:53:32 36° ESE
NOSS 3-4 (C) 4.0 19:44:09 10° NNW 19:51:00 49° NE 19:53:33 36° E
Cosmos 1315 Rocket 4.3 19:54:51 10° SW 19:58:30 36° WNW 20:01:53 12° N
Cosmos 1626 2.8 19:55:14 10° SSW 19:58:51 53° W 20:00:04 35° NNW
Cosmos 2369 Rocket 4.2 19:54:22 10° NW 19:59:12 29° WSW 20:04:01 10° SSW
Cosmos 1408 Rocket 4.3 19:56:05 10° SSW 20:00:15 50° W 20:03:50 14° N
USA 81 3.9 20:06:17 10° S 20:11:33 82° E 20:12:11 69° NNE
ERS-2 4.3 20:09:35 10° SSW 20:12:41 26° W 20:15:50 10° NW
GEOS 3 Rocket 3.6 20:11:02 44° SSE 20:12:49 83° WSW 20:18:12 10° NW
Cosmos 44 3.7 20:11:00 10° SW 20:15:10 50° WNW 20:15:22 49° NW
Meteor 1-27 4.2 20:10:12 10° N 20:15:55 81° W 20:21:41 10° S
Cosmos 1656 Rocket 3.7 20:15:23 10° NNW 20:20:51 76° WSW 20:22:36 44° S
Cosmos 1943 Rocket 4.1 20:16:56 10° NW 20:21:38 28° WSW 20:26:17 10° SSW
Cosmos 1743 Rocket 4.4 20:20:28 10° SSW 20:23:46 45° SW 20:23:46 45° SW
Cosmos 1777 Rocket 4.3 20:23:40 10° NNW 20:28:51 64° WSW 20:29:33 57° SW
Cosmos 44 Rocket 4.2 20:27:47 10° SW 20:31:54 44° WNW 20:31:54 44° WNW
Meteor 2-15 4.4 20:29:01 10° S 20:35:08 80° W 20:35:32 76° NW
COSMOS 2406 3.4 20:30:40 10° SSW 20:35:58 70° WSW 20:35:58 70° WSW
